Weather in Ust'-Pogozh'ye

Russia / Volgograd Oblast     49°28′13″N   44°37′02″E
temp.,
°C
wind,
m/s
gust,
m/s
humid.,
%
clouds,
%
prec.,
mm/h
press.,
hPa
HPBL,
m
28 september, tue
tue2800:00+8nnw48935 0.0 1016181
03:00+7nnw36945 0.0 1017126
06:00+6n349276 0.0 101877
09:00+10nne3476100 0.0 1019348
12:00+10nne4466100 0.0 1021721
15:00+12n445999 0.0 10211260
18:00+9ne5764100 0.0 1023547
21:00+8ne5768100 0.0 1025708
29 september, wed
wed2900:00+8nne476597 0.0 1026549
03:00+7n3663100 0.0 1027296
06:00+7nne476735 0.0 1027322
09:00+8nne565488 0.0 1028723
12:00+11nne454155 0.0 10281810
15:00+12ne563650 0.0 10271983
18:00+9ne37475 0.0 1029147
21:00+7nne365310 0.0 1030122
30 september, thu
thu3000:00+6ne34585 0.0 103056
03:00+5nne36633 0.0 103095
06:00+4nne36670 0.0 1032101
09:00+9ene46480 0.0 1033693
12:00+11ene45375 0.0 10321680
15:00+12ene44335 0.0 10321871
18:00+9ene35432 0.0 103269
21:00+7e22485 0.0 103323
1 october, fri
fri100:00+6ne22512 0.0 103410
03:00+5nne22565 0.0 103410
06:00+4n22595 0.0 103511
09:00+9n22455 0.0 1035388
12:00+12nne22385 0.0 10341528
15:00+13n22355 0.0 10331701
18:00+11ne11445 0.0 103310
21:00+9sw01505 0.0 103410
2 october, sat
sat200:00+8w115633 0.0 103410
03:00+9nw1157100 0.0 103420
06:00+9nnw1157100 0.0 103412
09:00+11nne1254100 0.0 1034160
12:00+13nnw115298 0.0 1034878
15:00+14nnw125175 0.0 10331411
18:00+14n115596 0.0 103313
21:00+11sse225913 0.0 103429